Location: Baile na Cille
(53.2061°N, 8.0889°W)
Time: 07:27:44
(UTC+00:00)

Daily predictions for brighter satellites

Satellite Brightness Start Highest point End
(mag) Time Altitude Azimuth Time Altitude Azimuth Time Altitude Azimuth
Meteor 1-12 Rocket 4.5 20:05:53 10° SSW 20:11:54 89° W 20:17:58 10° NNE
SL-16 R/B 3.9 20:13:19 10° ESE 20:15:22 12° E 20:17:26 10° ENE
PAYLOAD B 4.3 20:10:52 10° SSE 20:16:19 69° ENE 20:21:47 10° NNW
CSL-04 Debris 4.3 20:13:16 10° SSE 20:18:39 81° WSW 20:24:05 10° NNW
IRAS Rocket 4.4 20:13:19 10° SSE 20:18:49 77° WSW 20:24:20 10° NNW
Terra 2.0 20:14:30 10° SSE 20:19:05 56° ENE 20:23:41 10° N
Cosmos 2360 Rocket 4.1 20:14:01 10° WSW 20:19:09 35° NW 20:24:20 10° NNE
Cosmos 1733 Rocket 3.7 20:15:25 10° SSE 20:19:23 35° E 20:23:23 10° NNE
Feng Yun 1-1 Rocket 4.2 20:15:28 10° SSE 20:20:59 80° ENE 20:26:26 10° NNW
Cosmos 192 4.4 20:17:58 10° S 20:22:46 58° ESE 20:27:36 10° NNE
Cosmos 1809 Rocket 4.5 20:16:36 10° N 20:22:48 78° ENE 20:28:59 10° SSE
ATLAS 3B R/B 4.1 20:16:21 10° W 20:23:52 47° NNW 20:31:26 10° NE
Timation 2 Rocket 4.3 20:18:23 10° NW 20:24:41 75° WSW 20:31:14 10° SSE
Cosmos 1025 Rocket 4.0 20:21:20 10° N 20:25:05 30° ENE 20:28:51 10° SE
Spot 2 Rocket 4.1 20:20:37 10° SE 20:25:16 40° ENE 20:29:58 10° N
DNEPR-1 R/B 3.7 20:23:21 10° SSW 20:27:23 49° SE 20:31:41 10° NE
CZ-4 R/B 1.4 20:24:03 10° S 20:27:48 72° WSW 20:31:31 10° NNW
MOS 1 4.3 20:23:14 10° SSE 20:28:52 81° ENE 20:34:33 10° NNW
ADEOS 3.6 20:26:49 10° SSE 20:31:59 71° ENE 20:37:12 10° NNW
Meteor 1-31 Rocket 3.3 20:28:46 10° S 20:32:13 54° WSW 20:35:42 10° NNW
Cosmos 2322 Rocket 4.4 20:27:33 10° W 20:32:24 29° NW 20:37:17 10° NNE
Aureole 3 3.9 20:33:26 10° N 20:38:02 70° ENE 20:43:37 10° SSE
NOSS 3-4 (A) 3.3 20:32:59 10° SSW 20:38:07 52° SE 20:43:49 10° NE
MetOp-B 4.2 20:33:14 10° SSE 20:38:37 83° ENE 20:44:00 10° NNW
NOSS 3-4 (C) 3.3 20:33:30 10° SSW 20:38:39 52° SE 20:44:22 10° NE
NOSS 3-1 (C) 4.3 20:33:53 10° NW 20:40:05 54° NNE 20:47:52 10° ESE
BREEZE-M DEB (TANK) 2.8 20:39:30 10° WSW 20:41:44 40° SSE 20:45:40 10° E
Cosmos 2341 Rocket 4.0 20:35:28 10° S 20:41:44 86° E 20:48:07 10° NNE
Cosmos 1869 Rocket 4.1 20:38:19 10° SSW 20:42:41 65° WNW 20:47:07 10° N
SL-8 Rocket 4.1 20:36:59 10° S 20:43:16 90° NW 20:49:38 10° N
TSX-5 4.3 20:38:47 10° S 20:43:22 45° ESE 20:47:13 10° NE
SL-08 R/B 3.8 20:38:46 10° NNE 20:43:28 43° E 20:48:08 10° S
Cosmos 2237 Rocket 2.3 20:39:37 10° SSW 20:45:10 58° ESE 20:50:47 10° NE
Cosmos 1980 3.7 20:41:10 10° SSW 20:46:43 63° ESE 20:52:19 10° NE
Cosmos 2219 Rocket 4.2 20:45:46 10° WSW 20:50:46 33° NW 20:55:50 10° NNE
MOS 1-B 4.4 20:47:47 10° SSE 20:53:30 67° ENE 20:59:15 10° NNW
Meteor 1-11 4.3 20:49:38 10° NNW 20:55:11 82° W 21:00:41 10° S
Cosmos 2292 Rocket 3.8 20:50:40 10° N 20:55:39 53° ENE 20:58:50 15° SSE
Cosmos 1656 Rocket 3.6 20:51:52 10° NNW 20:57:21 79° ENE 21:02:01 15° SE
Cosmos 1727 Rocket 4.0 20:50:59 10° N 20:57:23 76° ENE 21:03:41 10° SSE
IRS-1A Rocket 4.3 20:52:33 10° SSE 20:58:10 89° ENE 21:03:57 10° NNW
Cosmos 2366 rocket 4.1 20:52:01 10° SSW 20:58:11 79° WNW 21:04:22 10° N
Cosmos 2297 4.4 20:53:47 10° NNW 20:59:19 45° NE 21:03:42 16° ESE
Helios 1A Rocket 3.1 20:59:07 10° N 21:02:18 55° WNW 21:05:27 10° SSW
USA 32 4.1 20:58:08 10° S 21:03:22 87° W 21:08:38 10° N
RESURS DK-1 2.4 21:00:36 10° SSW 21:04:25 50° ESE 21:08:16 10° NE
USA 59 Rocket 0.3 21:02:04 10° WNW 21:05:15 47° SW 21:08:18 16° SSE
Okean-O 2.6 21:02:22 13° SSE 21:06:12 76° ENE 21:10:36 10° NNW
SJ 16-02 3.9 21:07:24 10° NNE 21:07:52 10° NE 21:08:21 10° NE
Cosmos 2084 Rocket 3.2 21:07:04 10° SW 21:11:07 72° SE 21:15:14 10° NE
Cosmos 2369 Rocket 2.5 21:06:07 10° NNW 21:11:39 55° NE 21:15:34 19° SE
Cosmos 405 Rocket 3.7 21:10:53 10° NNE 21:13:10 20° ENE 21:13:48 19° E
Cosmos 1934 Rocket 4.4 21:11:15 14° SSE 21:16:12 42° E 21:21:58 10° NNE
Cosmos 1943 Rocket 4.1 21:12:48 10° NW 21:17:18 25° WSW 21:21:47 10° SSW
ATLAS 5 CENTAUR R/B 3.3 21:14:44 10° NW 21:17:31 21° NNE 21:20:43 10° ENE
Okean O Rocket 1.6 21:16:17 14° S 21:20:00 79° WSW 21:24:22 10° NNW
Cosmos 1674 Rocket 3.6 21:15:54 10° NNW 21:20:14 78° W 21:23:55 14° S
COSMOS 2455 4.0 21:16:18 10° NW 21:21:49 36° NNE 21:26:41 13° E
Cosmos 2278 Rocket 4.0 21:20:55 10° NW 21:25:31 26° WSW 21:30:07 10° SSW
CZ-4B R/B 4.2 21:21:36 10° S 21:26:59 47° W 21:32:26 10° NNW
Lacrosse 5 rocket 1.9 21:25:03 10° WNW 21:28:05 40° N 21:30:49 12° ENE
Cosmos 1125 Rocket 3.5 21:23:19 10° SSW 21:28:34 89° NW 21:33:53 10° NNE
Cosmos 2123 Rocket 4.0 21:22:36 10° N 21:28:54 74° ENE 21:33:39 19° SSE
Cosmos 1908 Rocket 3.7 21:26:22 20° SSE 21:29:09 52° E 21:33:22 10° NNE
USA 234 3.2 21:22:38 10° ENE 21:29:11 70° SSE 21:35:44 10° SW
Cosmos 1315 Rocket 4.3 21:29:50 19° E 21:29:50 19° E 21:32:27 10° NE
Cosmos 921 Rocket 4.5 21:26:05 10° N 21:29:51 26° NE 21:31:54 19° E
Cosmos 1400 Rocket 3.1 21:27:39 10° SSW 21:31:12 59° WNW 21:34:48 10° N
USA 186 2.0 21:30:49 28° SW 21:31:31 38° W 21:33:43 10° NNW
Cosmos 2263 4.4 21:28:13 10° NNW 21:33:48 61° NE 21:37:10 24° SE
Cosmos 1821 Rocket 4.4 21:29:05 10° SSW 21:35:19 66° WNW 21:41:41 10° N
Cosmos 1602 2.3 21:33:15 10° NNW 21:35:35 79° W 21:35:48 68° SSW
Cosmos 1346 Rocket 3.1 21:32:38 10° NNW 21:36:12 55° W 21:38:30 20° S
Cosmos 2239 Rocket 4.4 21:30:06 10° S 21:36:17 87° E 21:42:34 10° N
COSMOS 2428 4.2 21:31:15 10° WSW 21:36:36 39° NW 21:42:00 10° NNE
NOSS 3-1 (A) 4.3 21:30:25 10° NW 21:36:43 55° NNE 21:43:08 16° ESE
Cosmos 1782 Rocket 4.2 21:37:34 29° SE 21:38:48 35° E 21:42:45 10° NNE
Cosmos 1862 4.3 21:37:28 10° N 21:40:36 27° ENE 21:41:15 25° E
NOSS 2-1 (E) 4.2 21:39:26 10° WNW 21:42:30 34° SW 21:44:13 23° S
SeaSat 1 3.7 21:39:40 16° E 21:42:42 30° NE 21:46:58 10° NNW
ASTEX 1 3.6 21:39:38 14° S 21:43:49 69° W 21:48:45 10° N
CZ-4B R/B 2.5 21:45:20 34° S 21:46:44 79° WSW 21:50:10 10° NNW
Cosmos 1269 Rocket 4.4 21:43:02 10° NNW 21:48:12 52° ENE 21:50:44 28° ESE
Cosmos 44 3.7 21:47:04 10° SSW 21:51:54 46° ESE 21:56:59 10° NE
CZ-2C R/B 1.8 21:53:28 68° SSE 21:53:47 86° E 21:56:42 10° NNW
Ariane Rocket 2.9 21:53:29 29° SSE 21:56:09 87° ENE 22:01:14 10° NNW
Geosat 4.3 21:51:50 10° NNE 21:56:50 70° NW 22:01:48 10° SW
Terra 3.9 21:53:11 10° SW 21:56:56 23° W 22:00:42 10° NW
Cosmos 1174 3.8 21:54:12 10° NW 21:57:32 46° NE 21:58:04 41° ENE
Cosmos 1605 Rocket 4.2 21:54:56 28° SSE 21:57:51 48° E 22:03:42 10° NNE
SL-16 R/B 2.2 21:52:45 10° SSW 21:58:19 62° ESE 22:03:56 10° NE
Cosmos 1812 4.3 22:00:41 11° WNW 22:00:51 11° WNW 22:01:26 10° NW
Cosmos 2285 Rocket 4.0 21:55:56 11° S 22:02:02 67° ESE 22:08:19 10° NNE
Cosmos 1025 Rocket 4.3 21:58:42 10° NNW 22:02:35 35° W 22:05:42 14° SSW
Cosmos 2058 3.1 22:02:49 10° N 22:06:39 47° ENE 22:07:15 42° ESE
CZ-4B R/B 3.6 22:04:22 28° S 22:06:52 66° WSW 22:11:37 10° NNW
Cosmos 2150 Rocket 3.8 22:06:57 19° SSW 22:10:42 76° ESE 22:15:56 10° NNE
SWAS 4.2 22:08:26 10° NW 22:12:30 84° WSW 22:13:25 53° SSE
Cosmos 1300 Rocket 3.4 22:11:04 36° S 22:12:48 87° E 22:17:08 10° NNE
Cosmos 1140 Rocket 3.4 22:11:12 10° NNW 22:16:22 84° ENE 22:18:13 41° SSE
ATLAS 3B R/B 4.3 22:09:04 10° WNW 22:16:24 39° N 22:23:35 10° ENE
SPOT 3 Rocket 4.2 22:17:33 24° SSW 22:20:30 51° W 22:25:34 10° NNW
IRS-1C Rocket 4.4 22:17:58 28° S 22:20:41 61° WSW 22:25:57 10° NNW
Cosmos 407 Rocket 3.9 22:16:39 10° NNW 22:21:41 51° ENE 22:23:23 36° ESE
Cosmos 1869 3.3 22:20:51 41° SW 22:21:53 63° WNW 22:25:26 10° N
Cosmos 371 Rocket 4.0 22:17:16 10° NNW 22:21:53 42° NE 22:23:23 32° E
NOSS 3-4 (A) 4.2 22:23:43 10° WSW 22:29:01 49° NNW 22:35:05 10° NE
Cosmos 2237 Rocket 3.8 22:24:17 10° WSW 22:29:32 36° NW 22:34:49 10° NNE
NOSS 3-4 (C) 4.2 22:24:13 10° WSW 22:29:33 50° NNW 22:35:39 10° NE
BREEZE-M DEB (TANK) 4.4 22:27:48 10° WSW 22:28:44 19° WSW 22:28:44 19° WSW
NOSS 3-1 (C) 4.1 22:24:27 10° NW 22:31:13 65° SW 22:35:10 33° SSE
Helios 1B rocket 2.6 22:35:43 46° ENE 22:35:43 46° ENE 22:38:57 10° N
Helios 1A 3.4 22:35:41 10° NNE 22:39:02 42° ENE 22:39:02 42° ENE
RESURS DK-1 4.4 22:38:36 10° WSW 22:42:00 27° NW 22:45:25 10° NNE
Cosmos 2346 Rocket 4.5 22:36:22 10° NNW 22:42:32 77° W 22:45:10 37° S
Cosmos 2297 4.4 22:38:04 10° NW 22:43:31 45° WSW 22:45:37 32° SSW
Meteor 2-3 Rocket 4.2 22:40:21 10° N 22:45:46 47° ENE 22:47:17 38° ESE
Cosmos 405 Rocket 3.9 22:43:36 10° NW 22:45:55 25° W 22:45:55 25° W
SJ 16-02 1.9 22:43:01 10° NNW 22:47:08 43° ENE 22:47:38 41° E
Cosmos 1975 Rocket 3.6 22:44:15 10° NNW 22:48:34 51° W 22:49:38 41° SW
Okean 2 Rocket 4.3 22:49:40 28° ENE 22:49:40 28° ENE 22:53:03 10° NNE
Cosmos 1356 Rocket 3.1 22:49:19 81° S 22:49:31 89° ESE 22:53:34 10° NNE
Okean 1 Rocket 4.4 22:54:23 26° ENE 22:54:23 26° ENE 22:57:29 10° NNE
Cosmos 2369 Rocket 3.3 22:50:29 10° NW 22:55:26 33° WSW 22:57:20 26° SW
BREEZE-M DEB (TANK) 4.4 22:53:08 10° W 22:56:14 29° SSW 22:56:14 29° SSW
Okean O Rocket 4.3 22:55:33 10° WSW 22:56:56 11° W 22:58:19 10° WNW
ATLAS 5 CENTAUR R/B 1.8 22:56:24 10° NW 23:00:12 57° NE 23:00:54 50° ENE
Cosmos 1315 Rocket 3.5 23:04:30 42° W 23:05:01 45° WNW 23:08:40 10° N
Lacrosse 5 rocket 2.0 23:01:53 10° WNW 23:04:05 38° NW 23:04:05 38° NW
Cosmos 1603 4.2 23:07:13 42° ESE 23:07:13 42° ESE 23:12:28 10° NE
Cosmos 1697 Rocket 4.1 23:02:35 10° NNW 23:07:33 30° NE 23:10:43 18° E
Cosmos 921 Rocket 3.4 23:03:53 10° NNW 23:08:11 51° WSW 23:08:29 50° WSW
COSMOS 2455 2.8 23:02:16 10° NW 23:08:18 78° SW 23:09:48 53° SSE
CZ-2C R/B 4.4 23:06:58 18° E 23:09:14 24° NE 23:13:28 10° N
IKONOS-2 4.3 23:06:21 10° NNE 23:10:26 88° NNW 23:10:26 88° NNW
Cosmos 1153 Rocket 4.4 23:08:53 45° S 23:11:00 89° ESE 23:17:20 10° N
USA 234 3.5 23:05:46 10° ENE 23:12:17 71° NNW 23:18:48 10° W
Cosmos 1943 3.1 23:12:08 45° SSW 23:13:58 86° ESE 23:19:41 10° NNE
ARIANE 6 FM1 Upper Stage 4.2 23:13:16 10° NW 23:16:52 30° NNE 23:18:35 22° ENE
Cosmos 1190 Rocket 4.1 23:11:37 10° NNW 23:16:55 65° ENE 23:17:53 54° ESE
ALOS 2 3.1 23:17:45 48° ENE 23:17:56 48° ENE 23:22:11 10° N
SeaSat 1 2.4 23:19:17 63° SSW 23:19:47 68° WSW 23:24:42 10° NW
Sich 1 Rocket 4.3 23:21:46 42° ENE 23:21:46 42° ENE 23:25:25 10° NNE
Cosmos 1802 Rocket 4.2 23:22:50 47° SE 23:24:04 55° E 23:30:10 10° NNE
ARIANE 5 R/B 2.6 23:25:46 69° ENE 23:25:46 69° ENE 23:30:05 10° N
Cosmos 1980 Rocket 4.1 23:21:28 10° NNW 23:26:05 24° NE 23:30:41 10° E
Cosmos 304 Rocket 3.9 23:21:55 10° NNW 23:26:37 60° WSW 23:26:48 60° WSW
Cosmos 1459 Rocket 4.0 23:26:15 53° SSE 23:27:47 74° E 23:34:06 10° NNE
NOSS 3-1 (A) 4.1 23:21:04 10° NW 23:27:53 63° SW 23:30:29 44° S
Cosmos 1818 3.6 23:23:12 10° NW 23:28:42 76° NE 23:29:51 56° ESE
Cosmos 2360 4.3 23:23:14 10° NNW 23:28:56 72° NE 23:30:13 53° ESE
Spot 4 3.7 23:29:12 70° ESE 23:29:30 74° ENE 23:34:15 10° NNW
Cosmos 968 Rocket 4.5 23:27:34 10° NNW 23:32:26 39° NE 23:33:54 32° E
Cosmos 44 4.3 23:28:03 10° WSW 23:33:05 49° NW 23:38:20 10° NE
Cosmos 332 Rocket 4.1 23:34:17 10° NNW 23:39:02 53° ENE 23:39:32 51° E
Cosmos 1816 Rocket 4.4 23:35:14 10° NNW 23:41:26 80° W 23:42:47 56° S
SL-16 R/B 3.7 23:37:38 10° WSW 23:42:47 35° NW 23:47:59 10° NNE
CZ-2C R/B 3.7 23:41:10 10° NNE 23:45:11 68° ENE 23:45:11 68° ENE
Meteor 2-12 Rocket 4.5 23:40:32 10° N 23:46:35 68° ENE 23:47:49 54° SE
Cosmos 1420 Rocket 4.0 23:47:50 64° ESE 23:47:50 64° ESE 23:53:05 10° NNE
Cosmos 2016 Rocket 4.0 23:47:41 56° SSE 23:48:56 69° E 23:55:14 10° NNE
Cosmos 1954 Rocket 3.8 23:44:11 10° NNW 23:49:28 87° WSW 23:49:51 77° SSE
Cosmos 676 Rocket 4.0 23:44:50 10° NNW 23:50:09 75° ENE 23:50:45 67° ESE
Meteor 2-1 Rocket 4.2 23:49:22 64° S 23:50:22 85° E 23:56:11 10° NNE
